ECMWFNIL_sfc_dewp_000.txt.gz
Dewpoint
58 54 55 55 54 55 54 55 53 55 55 54 54 53 54 54 54 56 57 56 54 54 54 54 54 54 54 54 54 48 51 54 52 52 51 52 52 51 50 48 49 49
58 56 54 54 55 54 55 57 54 54 56 55 55 55 55 53 54 56 55 55 54 55 54 54 55 53 53 52 53 50 52 53 51 51 53 52 51 52 51 50 49 52
57 57 55 54 55 55 55 58 57 54 56 56 58 56 56 54 54 56 55 54 53 54 55 55 54 55 53 53 53 52 52 53 52 53 53 52 52 51 51 51 50 48
58 59 57 57 58 57 55 56 59 55 58 56 58 57 55 55 55 56 56 55 55 54 55 55 55 54 52 51 54 52 51 52 52 53 52 51 52 51 51 51 51 48
60 61 60 59 58 59 57 54 58 56 57 56 59 57 56 55 56 55 55 56 56 54 55 55 54 55 54 51 52 52 52 52 51 52 50 52 51 50 50 51 48 49
61 58 58 57 61 62 59 54 58 60 58 55 58 57 56 56 55 54 54 54 55 54 54 53 53 53 53 52 54 51 52 50 49 52 49 48 47 49 44 51 48 48
61 59 60 58 61 60 60 61 59 56 58 59 57 56 56 55 54 53 52 52 52 53 51 52 51 52 52 53 53 52 51 52 47 49 48 46 47 48 46 48 45 44
56 60 61 60 60 59 58 58 60 59 62 56 57 57 56 53 52 54 53 51 51 51 51 50 50 50 51 52 50 51 51 54 48 48 48 45 47 43 46 47 49 45
60 59 61 63 58 60 59 58 60 60 60 57 54 58 57 54 52 55 53 51 51 52 50 51 50 49 51 52 50 50 48 51 50 48 47 49 45 46 42 43 46 47
59 59 59 61 60 60 60 60 61 60 60 58 57 59 57 59 55 53 54 52 52 51 51 51 50 50 50 49 47 48 48 48 48 49 48 49 45 43 39 44 44 46
61 62 62 60 60 59 58 58 59 59 57 56 57 57 57 57 56 56 55 53 53 51 50 50 50 49 49 49 49 51 48 48 46 45 47 47 47 46 48 46 46 46
59 59 59 60 60 59 59 59 59 60 59 58 57 57 56 56 57 57 55 53 52 50 49 49 50 49 48 48 47 49 49 49 48 48 48 46 47 47 45 46 46 45
50 53 60 59 60 61 60 60 59 60 59 60 59 57 58 57 56 55 56 57 54 53 50 49 49 50 49 49 47 47 48 48 49 49 49 49 48 46 46 45 45 44
51 52 53 57 60 60 59 59 58 57 57 59 59 57 57 55 54 54 52 52 53 51 50 50 50 50 49 49 47 47 48 48 49 49 47 48 49 47 47 46 45 44
53 53 55 58 57 57 57 56 56 56 56 56 58 57 57 56 55 55 55 53 52 51 51 51 51 51 50 49 49 48 49 50 49 47 48 47 47 46 46 44 43 42
51 54 50 51 50 54 54 54 54 55 54 57 57 56 55 54 55 56 54 54 53 52 52 54 55 55 50 46 47 48 48 47 49 48 46 46 45 44 44 42 42 43
51 46 48 49 50 52 51 50 52 54 54 53 54 52 52 52 53 55 54 54 53 53 52 55 54 53 47 42 42 44 48 48 48 48 49 48 46 44 41 41 42 37
44 47 47 45 48 45 43 44 47 50 51 53 55 55 55 55 54 53 52 54 55 54 56 56 55 50 45 42 40 41 45 50 50 48 48 47 45 44 42 40 38 39
43 44 44 46 42 45 48 49 48 50 51 53 53 55 52 51 52 53 54 55 57 56 55 55 52 41 41 41 40 40 42 45 47 47 44 46 44 41 42 46 48 48
45 44 43 43 44 46 49 47 47 48 52 53 52 52 53 53 55 54 55 55 56 55 54 48 45 39 38 38 37 38 40 42 43 48 44 42 43 44 42 46 45 42
41 40 41 43 46 48 49 48 49 49 49 51 52 52 52 52 52 53 53 54 55 52 47 45 43 36 37 36 35 36 38 42 45 49 44 43 44 45 44 42 41 43
41 45 47 46 45 46 47 47 49 50 49 51 51 51 51 51 51 52 53 53 54 51 47 43 40 35 35 34 33 34 37 41 45 48 43 42 44 43 43 42 42 42
41 45 46 47 45 46 45 47 48 49 49 49 50 51 51 51 51 51 51 52 52 50 47 43 38 35 33 33 32 35 39 39 43 41 44 44 42 42 40 41 43 39
42 43 44 44 46 43 45 47 47 47 44 48 47 48 49 50 51 49 50 51 49 48 47 43 38 36 33 32 33 35 38 40 39 39 42 41 44 46 44 43 45 45
44 45 45 46 44 46 48 48 48 48 46 48 47 48 49 49 47 48 49 48 45 44 44 42 38 35 34 33 33 35 40 41 42 42 41 41 41 38 37 41 39 41
46 46 44 43 42 48 48 48 47 47 48 46 48 47 47 46 47 48 48 46 44 43 43 41 37 35 36 34 33 33 37 43 42 41 38 37 36 39 36 39 40 36

ECMWFNIL_sfc_dewp_003.txt.gz
Dewpoint
51 50 49 49 49 51 50 51 51 50 49 49 49 50 49 50 53 52 52 51 50 49 49 49 49 48 51 50 49 49 50 50 50 49 49 49 47 46 46 45 46 45
50 51 51 50 51 52 50 51 50 50 49 50 50 50 50 51 52 53 50 50 51 51 51 50 50 49 48 47 47 47 48 48 47 50 48 48 47 46 46 46 46 47
51 51 51 50 50 50 50 51 51 51 50 51 51 51 50 51 53 52 50 50 50 50 50 50 49 50 50 49 48 49 49 47 46 51 49 48 49 48 47 47 46 47
52 51 51 51 50 50 51 50 50 51 52 52 52 51 50 53 52 51 51 54 50 50 51 50 50 51 48 49 50 48 50 50 49 47 48 49 49 48 47 49 48 44
53 51 51 52 51 51 52 51 49 51 52 53 53 51 51 52 51 51 51 51 50 50 51 50 50 50 48 48 49 46 49 48 49 48 47 48 47 47 47 46 45 44
56 55 54 54 52 51 51 51 49 52 53 54 52 51 50 52 51 51 51 52 51 51 50 51 50 51 48 46 49 46 49 45 46 49 48 46 45 46 48 48 47 44
56 55 56 56 55 52 51 52 50 52 52 54 53 50 51 52 51 51 51 52 51 51 50 50 49 50 49 46 50 46 48 44 45 48 46 45 45 44 44 46 44 45
55 55 55 54 54 53 54 53 54 55 54 54 52 51 51 51 51 51 51 52 52 51 51 50 49 50 49 48 49 46 46 50 45 45 46 44 43 43 43 45 46 43
53 54 55 53 53 53 53 54 54 52 52 53 54 54 54 52 52 51 50 50 52 51 51 50 49 50 48 49 48 47 44 49 45 42 44 45 43 41 41 43 40 39
52 55 56 54 52 53 54 55 56 56 55 55 54 54 54 54 53 53 53 52 51 51 51 51 50 49 49 48 48 48 45 48 44 43 44 46 43 43 44 42 42 42
56 57 57 56 56 56 56 55 55 55 55 54 54 54 54 53 54 53 53 52 53 52 51 51 51 50 49 48 48 48 47 47 45 44 45 46 42 42 45 43 42 42
57 57 57 56 55 55 55 56 55 55 55 55 54 54 54 54 55 55 54 53 54 53 53 52 52 51 50 48 47 47 48 47 45 44 45 45 44 43 43 44 42 44
56 57 57 57 56 56 57 56 56 55 55 55 55 55 55 55 55 55 55 55 55 54 55 55 55 55 53 49 48 47 47 47 46 44 45 45 45 45 44 42 42 43
52 54 55 56 57 57 57 56 56 55 56 56 55 54 55 55 55 54 54 55 55 54 53 53 53 52 51 50 48 47 47 47 47 45 45 45 45 44 45 42 42 43
53 53 54 53 56 56 57 55 54 53 55 55 54 53 54 52 53 54 53 52 53 53 52 52 52 52 51 50 50 48 47 47 47 46 46 45 46 44 44 44 42 42
51 52 52 52 52 52 54 54 53 54 54 54 54 54 54 54 54 54 53 52 52 52 52 53 53 53 51 48 48 48 47 46 48 46 46 45 45 44 42 41 41 42
47 43 43 46 49 51 50 51 50 52 52 54 55 55 54 55 55 54 54 53 52 52 52 53 53 53 48 46 43 44 48 48 47 47 47 46 44 42 39 39 41 44
40 40 43 44 44 44 45 47 50 50 51 51 54 54 54 54 53 53 53 53 53 52 52 52 52 50 46 45 43 42 45 48 47 47 47 46 44 42 39 39 37 40
36 41 42 41 42 43 44 44 44 45 48 49 49 51 49 51 52 52 53 53 52 52 52 52 52 48 44 44 42 41 42 47 48 46 45 45 43 41 39 38 38 40
39 42 41 42 43 44 43 42 44 43 47 48 49 49 48 49 50 49 50 51 51 51 47 45 43 39 38 39 41 40 43 45 47 46 43 42 42 41 41 41 42 41
40 38 38 40 42 41 41 43 42 43 44 45 47 47 46 46 47 48 47 48 47 45 43 41 38 37 36 38 39 40 41 44 46 45 41 42 42 41 40 39 39 41
39 39 40 38 38 40 40 39 42 43 40 42 44 46 46 45 45 47 47 47 46 44 40 36 34 35 36 38 38 39 40 44 47 44 42 43 43 42 41 41 42 42
39 38 38 38 39 37 38 40 40 40 39 41 38 43 44 44 44 45 47 47 45 43 38 34 34 34 36 37 37 38 40 41 41 43 41 40 41 42 42 42 41 40
38 39 39 38 40 37 37 38 40 40 38 40 38 40 42 45 44 46 46 47 45 42 38 34 32 34 35 37 37 38 39 40 40 41 39 39 40 44 44 42 42 45
38 39 40 40 38 38 41 40 40 39 41 41 41 41 42 43 46 46 44 43 43 42 41 34 31 34 35 35 37 38 39 41 41 40 39 39 38 38 39 42 38 39
38 38 39 39 39 39 41 42 42 40 39 40 41 41 41 42 45 44 43 41 42 41 39 33 31 32 34 35 37 38 38 38 39 37 37 36 33 33 33 35 35 33

ECMWFNIL_sfc_dewp_006.txt.gz
Dewpoint
50 50 50 51 51 51 50 49 48 46 46 47 46 47 47 47 51 49 48 49 48 47 47 48 49 49 49 48 49 49 50 50 49 47 47 47 45 44 44 43 42 41
50 50 50 50 52 51 50 50 49 47 47 47 47 48 47 50 51 49 48 48 49 47 47 48 48 48 47 48 48 48 47 47 47 50 46 45 44 44 45 45 44 42
50 49 49 49 51 51 50 50 49 48 47 47 48 48 49 51 51 48 48 48 47 48 48 47 47 47 46 46 47 47 46 46 47 47 46 44 46 44 45 45 45 42
50 49 49 49 50 50 50 50 50 49 49 49 48 48 50 52 49 48 48 52 47 47 48 47 48 48 47 47 47 46 46 46 48 48 48 47 47 46 46 47 47 46
50 50 49 49 50 50 50 50 50 49 49 49 49 49 51 51 48 47 49 48 47 47 48 48 49 47 48 47 46 47 47 47 47 47 47 46 47 46 46 46 44 44
50 50 50 49 50 50 50 50 50 50 50 50 49 50 50 50 47 47 48 47 47 48 47 48 48 48 47 47 46 47 47 46 46 46 46 45 45 46 46 46 45 42
51 50 50 50 49 50 49 50 50 51 51 50 49 49 50 49 48 48 48 47 47 48 47 47 48 48 47 47 46 46 46 45 46 46 45 45 46 45 46 44 45 44
53 52 51 51 49 50 49 49 50 51 51 51 48 48 50 49 48 48 49 48 47 47 47 47 48 48 47 47 46 45 46 45 45 47 45 44 44 42 43 45 44 43
54 54 53 52 49 50 50 50 50 51 52 50 48 48 50 49 49 49 49 48 48 48 47 48 47 48 48 46 47 45 45 46 45 45 45 44 43 42 43 44 43 43
53 53 53 52 50 51 51 51 51 52 53 50 48 49 50 50 50 50 50 49 49 49 48 48 48 48 47 46 46 46 44 46 46 43 44 44 43 41 42 42 41 39
52 52 52 52 53 53 53 52 52 53 53 50 50 50 51 51 51 51 50 51 51 50 50 50 49 49 48 47 47 47 45 45 46 43 42 44 44 42 44 41 41 40
55 54 54 54 55 55 55 55 55 54 52 52 51 51 52 52 52 51 51 50 50 50 50 51 51 50 49 48 47 47 47 46 46 44 42 42 44 43 43 42 41 41
53 54 54 55 55 55 56 55 55 54 54 52 54 53 53 52 51 51 52 52 52 52 52 52 52 53 53 51 50 49 48 47 47 45 43 43 44 43 42 43 42 42
53 54 54 54 55 55 55 55 55 55 54 54 54 52 53 54 54 53 53 52 52 51 50 50 51 52 53 53 53 53 51 50 48 46 44 43 44 44 43 43 43 43
53 54 54 54 55 55 55 54 54 55 55 54 54 53 53 52 54 54 53 53 53 51 50 50 50 51 52 51 51 51 51 50 49 47 45 44 43 44 44 42 42 42
53 54 54 54 53 53 54 55 55 55 54 54 54 55 54 54 53 54 53 51 50 50 49 50 50 51 50 48 48 50 50 48 49 47 46 45 44 44 44 42 41 41
50 51 51 52 51 52 53 53 53 52 52 52 53 53 53 53 53 52 52 52 51 50 49 50 50 52 48 46 44 44 49 49 48 47 47 45 44 44 42 41 41 41
48 49 49 48 48 47 48 50 51 51 50 50 51 52 53 53 52 52 52 51 50 49 49 48 49 49 45 44 43 43 44 48 49 48 48 46 45 44 42 40 40 41
43 44 43 42 43 44 44 44 45 46 46 47 48 50 49 50 50 49 49 49 49 49 48 49 49 39 38 40 40 41 42 44 48 48 47 46 45 46 44 40 38 40
41 41 40 40 42 42 42 42 41 42 44 45 46 47 47 47 47 47 48 48 48 48 49 42 40 39 38 39 40 41 41 41 47 47 47 46 46 48 45 39 42 40
39 39 40 40 39 39 40 41 40 41 40 41 44 44 43 44 45 46 46 47 46 44 40 37 38 37 38 38 39 40 41 44 45 46 45 45 44 45 43 43 42 43
37 38 38 37 38 38 38 37 39 40 38 40 40 41 42 43 43 44 44 43 42 39 36 33 34 37 38 38 39 40 41 43 43 43 42 43 42 41 40 41 42 41
38 37 37 37 37 36 35 37 36 35 34 38 34 37 39 41 41 43 44 44 41 38 34 33 33 36 37 38 38 38 39 40 41 41 41 41 42 43 42 42 42 42
38 37 37 37 36 35 36 36 38 38 37 38 36 37 38 39 42 43 43 43 41 37 34 32 32 35 37 37 38 38 39 38 38 39 38 38 39 41 43 43 42 46
38 38 37 37 36 36 37 37 38 37 36 39 38 39 39 41 42 41 41 40 39 37 39 33 33 35 37 37 38 38 39 38 38 36 35 35 36 38 38 37 34 38
39 39 38 38 36 37 39 38 39 38 37 37 38 39 39 40 41 40 39 38 38 36 35 32 33 33 36 37 37 38 38 38 37 35 33 31 32 34 35 33 33 33

ECMWFNIL_sfc_dewp_009.txt.gz
Dewpoint
52 51 50 50 50 51 49 48 47 46 46 46 45 45 46 46 48 46 46 47 47 47 47 47 47 48 48 48 48 48 48 47 46 44 44 44 42 41 41 39 40 41
51 51 51 51 51 51 49 48 47 46 46 46 46 46 46 48 47 47 47 47 48 46 46 47 47 47 48 48 48 47 46 45 46 47 43 43 43 41 41 41 41 41
52 52 51 51 51 51 49 48 47 46 47 47 47 47 47 49 48 46 47 46 45 46 46 47 47 47 47 47 47 47 45 45 45 44 43 42 43 42 43 42 41 41
54 52 51 51 51 51 49 49 48 47 47 47 47 48 48 50 48 47 47 51 45 46 46 46 46 46 46 47 46 45 45 45 45 45 44 44 44 44 44 44 45 44
53 51 50 51 51 51 50 49 48 47 47 47 48 48 49 49 47 46 47 47 45 45 46 46 46 45 46 46 45 44 45 46 47 46 44 43 44 44 44 44 43 42
53 51 50 50 51 51 50 49 49 48 47 47 48 49 49 49 47 46 47 46 45 45 45 46 45 45 46 45 45 44 46 46 46 46 44 43 44 45 45 43 43 43
52 51 50 50 51 51 50 49 49 49 48 48 49 48 49 49 47 46 47 46 45 46 45 46 45 45 46 45 45 45 46 46 46 45 44 44 46 44 44 43 43 41
53 53 50 49 50 51 50 49 49 49 49 49 48 48 49 50 48 47 47 46 45 46 45 46 46 44 45 45 44 45 45 46 46 45 44 44 44 43 44 44 44 41
54 52 51 50 49 50 50 50 50 50 49 49 48 48 49 50 48 47 48 47 46 46 45 46 46 45 45 45 44 45 44 44 45 44 43 43 43 42 43 44 42 43
53 52 51 50 49 51 50 51 51 50 51 50 49 48 49 49 48 48 48 47 46 46 46 46 46 46 46 45 45 44 45 44 44 44 44 43 42 42 42 44 42 41
53 54 53 52 51 51 51 51 52 52 52 50 49 49 50 50 49 49 49 48 48 47 47 46 46 47 47 46 45 45 44 45 44 43 44 44 43 42 44 42 43 41
53 53 53 53 52 52 51 52 53 53 53 52 52 52 52 52 51 51 51 49 49 49 48 48 48 47 47 46 46 47 47 45 46 45 43 43 44 44 43 42 42 41
53 53 54 53 53 53 54 54 53 53 53 53 53 53 53 53 53 52 52 52 52 51 51 51 50 49 48 47 48 47 47 46 45 45 46 44 44 44 43 43 41 41
53 53 54 54 54 54 54 53 53 53 53 53 53 53 54 54 54 54 54 53 53 52 52 52 52 51 50 49 49 49 48 47 47 46 46 45 44 44 44 43 42 41
53 53 54 53 54 54 54 54 54 54 53 54 54 53 53 54 53 53 53 53 54 54 54 53 51 51 52 51 50 49 49 49 49 48 47 46 45 44 44 43 43 42
53 53 54 54 53 53 54 54 54 54 54 54 54 54 54 53 53 53 53 53 53 54 53 51 51 50 50 48 48 49 48 49 48 48 48 48 47 45 44 44 43 43
52 53 53 53 53 53 53 53 53 53 53 53 53 53 53 53 53 53 53 53 52 51 50 50 50 50 47 45 45 45 47 48 48 48 48 48 47 46 45 44 44 42
51 52 51 51 51 51 52 53 53 53 52 52 52 52 53 52 52 52 52 51 51 50 50 50 49 44 42 43 43 43 45 48 48 49 48 48 47 46 45 44 43 42
49 50 50 49 49 50 51 52 52 52 50 49 49 49 49 50 51 51 51 50 50 50 50 48 48 41 38 39 41 41 42 44 47 48 49 48 48 47 46 44 42 42
45 46 47 47 47 47 48 50 51 50 48 47 47 47 49 49 49 49 50 49 49 49 47 41 41 40 38 38 39 40 40 41 44 45 45 45 46 46 44 42 41 41
42 41 42 42 42 42 42 44 47 44 44 45 46 47 48 48 48 47 46 46 46 45 42 37 37 38 38 39 40 41 41 42 42 42 41 41 41 43 42 41 42 42
40 39 39 39 38 38 38 39 39 39 40 41 40 40 40 41 40 42 44 43 42 40 38 35 36 38 38 39 39 40 40 41 40 39 39 39 39 40 40 40 41 42
38 38 37 37 36 35 36 37 37 36 37 38 36 36 38 39 39 41 41 41 39 36 36 34 35 37 38 38 38 38 39 40 40 40 39 39 39 40 40 41 41 40
38 37 37 37 35 34 35 36 35 35 35 36 37 37 38 39 39 41 39 39 38 35 35 37 35 36 37 38 38 38 40 39 38 38 37 37 38 37 37 38 41 45
37 37 36 36 35 35 36 36 36 37 36 37 37 38 38 39 40 40 38 37 36 36 40 35 33 36 37 37 37 38 39 38 37 36 35 34 35 34 33 34 34 38
38 38 37 37 35 36 38 37 39 39 37 38 36 39 39 38 39 39 38 35 34 33 33 33 33 33 36 37 38 37 38 37 35 34 34 33 34 34 33 32 32 33

ECMWFNIL_sfc_dewp_012.txt.gz
Dewpoint
52 51 51 51 50 51 49 47 47 46 46 46 46 46 47 47 49 47 48 47 48 47 47 47 48 48 48 48 48 46 46 46 45 44 43 44 42 42 42 42 43 43
52 53 53 52 52 51 50 48 47 47 46 46 46 46 47 48 48 47 47 48 48 47 47 47 47 47 47 47 46 45 45 45 45 46 42 42 42 42 43 44 44 43
53 54 53 52 52 52 51 49 48 46 47 47 47 47 47 49 47 47 47 48 47 47 47 47 47 47 47 46 46 46 45 45 44 45 43 41 42 42 43 43 43 44
54 54 54 53 53 52 51 49 48 47 47 47 47 48 49 51 47 47 47 51 47 47 47 47 48 47 47 47 46 45 45 44 44 45 44 45 44 43 43 44 45 45
55 55 55 55 54 52 51 49 48 47 48 48 48 49 50 49 47 47 47 47 46 46 46 47 47 47 47 46 45 45 46 45 45 44 44 44 45 44 45 45 44 44
56 56 55 55 53 52 51 50 49 48 48 48 48 50 49 49 47 47 47 46 46 46 46 46 46 46 46 46 45 45 46 45 46 44 43 45 45 46 44 44 43 43
55 55 53 52 52 52 51 50 50 49 48 48 50 49 49 49 48 47 47 47 46 48 46 47 46 47 46 46 46 45 46 46 46 45 43 44 47 45 45 43 43 42
54 54 53 51 51 51 52 51 50 50 50 49 48 49 49 49 48 48 48 46 46 46 46 47 46 46 46 45 46 46 46 47 46 45 44 44 45 46 44 44 43 43
54 54 53 51 50 51 51 51 51 50 50 49 49 49 50 49 49 48 48 47 46 47 47 47 47 46 46 46 46 46 46 47 47 46 45 45 45 44 44 44 42 44
53 53 53 53 50 50 50 51 50 50 51 49 49 49 49 50 48 48 48 47 47 47 47 46 47 47 46 46 45 45 46 45 46 46 45 45 45 43 43 45 44 43
52 53 53 53 52 51 50 51 51 51 51 50 49 49 50 50 50 49 49 48 49 48 48 48 48 48 48 47 47 46 46 46 46 46 46 45 45 44 45 45 45 43
52 52 53 53 52 51 51 52 52 52 52 52 52 51 51 51 51 51 50 50 50 51 51 50 50 50 49 48 47 47 47 47 47 46 46 45 45 45 44 45 45 44
52 52 52 52 53 52 52 52 53 53 52 53 53 53 52 52 52 52 52 52 52 53 53 53 52 51 51 50 50 49 48 47 46 47 47 46 45 45 45 45 44 44
52 52 52 53 53 53 53 53 53 53 53 53 53 53 53 53 53 53 53 53 53 53 53 53 53 52 52 52 51 51 49 49 48 47 47 46 46 46 46 45 45 44
52 53 53 53 53 53 53 53 53 52 53 53 54 53 53 53 53 53 53 53 53 53 53 54 53 53 53 52 52 52 51 50 49 48 48 47 47 47 46 45 45 45
53 53 53 53 53 53 53 53 52 52 53 53 53 53 53 53 53 54 53 53 53 54 53 54 53 53 52 49 49 51 51 51 51 51 50 49 49 49 48 47 46 45
53 53 53 53 53 53 52 53 53 53 53 53 53 53 52 53 54 53 53 53 53 53 53 52 53 52 47 45 44 45 49 50 50 50 50 49 49 49 49 49 48 46
51 52 52 52 52 52 52 52 52 52 52 52 52 52 53 53 53 53 52 53 52 52 52 52 51 48 45 44 43 43 45 50 50 50 50 49 49 49 48 48 48 47
50 50 50 49 50 51 52 52 52 52 52 52 52 52 52 52 52 52 52 52 51 51 51 50 50 43 42 42 42 42 41 44 49 49 49 49 49 49 49 48 47 47
47 48 48 48 48 48 50 51 51 51 51 50 50 50 50 50 50 50 50 50 50 50 50 49 48 44 40 39 39 39 39 40 45 46 47 47 48 48 48 47 47 46
45 45 46 46 46 46 48 49 49 48 48 47 48 48 49 49 49 49 49 49 49 49 48 47 45 41 38 38 39 39 39 40 44 43 42 42 42 42 43 44 43 44
43 44 45 44 43 43 46 47 46 47 47 44 44 44 44 45 46 47 47 47 47 46 46 45 42 38 38 38 39 39 39 42 42 41 41 41 41 41 42 42 43 42
40 41 41 40 40 41 43 43 44 41 41 41 43 42 44 44 44 44 45 45 44 44 45 43 39 38 38 39 39 38 40 41 41 40 40 39 39 39 40 42 44 42
39 38 39 39 37 39 39 40 40 39 39 40 42 41 41 41 40 41 40 41 41 40 40 40 37 38 38 38 38 39 40 40 40 39 38 37 37 37 37 38 41 42
39 38 37 37 36 37 38 38 37 37 38 38 39 41 41 40 42 41 38 37 37 39 42 37 37 39 37 37 38 38 40 39 39 38 37 36 35 34 34 34 35 38
39 39 38 37 36 36 38 37 38 39 39 39 40 42 42 40 40 40 37 35 35 35 37 36 37 37 39 37 38 38 38 38 38 38 37 35 35 34 33 33 33 34

ECMWFNIL_sfc_dewp_015.txt.gz
Dewpoint
56 57 56 56 56 56 55 54 53 54 55 55 55 56 55 55 54 55 56 56 56 55 55 55 55 55 54 54 55 51 52 54 52 52 52 53 52 53 52 51 53 50
56 56 55 55 55 54 54 54 54 54 54 55 54 54 54 54 54 54 55 54 54 54 53 54 54 53 53 52 54 53 51 52 50 49 53 53 51 52 52 53 52 51
57 58 57 55 55 55 57 56 54 54 54 53 54 54 54 54 54 54 54 54 54 53 53 53 53 52 52 52 53 52 51 51 50 50 50 49 51 49 51 50 50 51
58 58 57 57 58 56 55 54 53 53 53 53 53 54 54 54 54 54 54 53 53 53 53 53 53 51 50 50 51 49 50 48 48 49 48 48 49 48 50 50 50 49
58 57 55 55 57 58 57 55 53 52 53 54 54 53 53 53 53 52 53 52 53 52 52 52 52 52 51 50 50 49 50 47 49 49 46 47 49 50 50 50 49 49
59 57 55 57 58 57 54 53 52 52 53 53 54 53 54 53 51 51 52 51 51 51 51 52 52 52 50 49 50 51 49 47 49 48 45 45 45 47 44 48 47 46
58 57 58 57 56 56 55 54 53 52 52 53 53 54 54 53 51 51 50 50 49 49 50 51 52 52 52 50 49 50 50 50 48 46 44 46 47 48 46 47 42 42
57 57 57 57 56 55 55 54 54 53 53 52 53 54 53 51 50 52 51 50 49 48 49 49 49 50 51 50 48 50 51 51 50 46 45 46 48 43 47 47 49 42
57 57 56 56 56 55 55 54 54 54 52 52 52 52 53 53 52 52 50 49 49 49 48 49 49 49 51 50 51 50 49 52 52 50 48 47 47 45 40 44 46 45
57 57 56 56 55 55 55 55 55 54 52 52 51 52 51 53 52 50 50 50 49 48 48 48 49 50 50 48 48 49 48 49 50 52 50 50 47 45 41 45 44 45
57 57 57 57 57 56 55 55 55 54 53 51 52 52 52 52 52 50 50 49 50 48 47 48 48 49 49 50 50 50 49 49 49 49 51 50 50 49 49 48 47 46
57 57 57 57 58 57 56 56 56 56 55 54 51 51 53 52 51 51 49 48 48 48 49 49 50 52 51 51 52 52 52 52 51 50 49 48 49 49 47 49 50 47
55 56 57 57 57 57 57 55 55 56 54 53 53 52 52 52 51 51 52 50 51 51 51 53 53 52 54 55 54 54 54 53 53 52 51 51 50 48 48 49 49 48
55 56 56 56 56 57 57 56 55 55 54 55 54 54 53 52 53 53 56 55 55 53 54 54 54 54 56 55 54 54 55 55 54 55 53 53 54 51 50 50 49 49
56 56 56 55 55 55 56 56 56 55 55 54 55 55 57 55 55 55 55 55 55 56 55 57 56 56 56 58 57 55 55 55 55 53 54 54 53 53 53 52 51 51
55 56 55 55 55 55 55 55 55 55 55 54 54 55 56 56 56 56 56 56 56 55 57 58 58 57 54 50 51 54 54 54 54 54 53 53 53 53 53 54 53 53
55 55 55 55 55 55 56 55 54 55 54 54 56 56 56 55 56 56 56 57 56 56 56 56 57 55 48 46 46 46 52 54 54 54 54 54 54 54 54 54 54 53
54 54 54 54 55 54 54 54 55 55 54 55 57 57 56 56 56 55 55 56 56 54 55 56 55 50 45 45 44 43 46 54 55 55 55 54 54 54 53 53 54 54
53 53 53 53 53 53 54 55 54 54 54 55 55 56 56 55 55 57 55 55 55 54 55 55 55 45 44 43 43 43 42 47 54 54 54 54 54 54 53 53 53 53
53 53 53 53 53 53 54 53 54 54 54 55 55 55 55 55 56 55 55 55 55 55 55 55 55 44 42 43 42 42 40 43 51 52 53 52 52 51 52 52 52 51
51 52 53 53 53 53 54 53 53 53 55 55 55 55 55 55 54 55 55 55 55 55 55 54 55 42 41 42 41 39 38 42 53 52 51 50 49 49 49 49 48 49
48 50 52 52 53 53 53 54 55 55 54 54 55 55 54 55 55 55 55 55 55 55 54 53 52 40 40 39 39 38 42 51 51 50 49 48 47 47 47 47 47 47
43 46 49 50 51 51 52 53 54 53 54 53 52 53 53 53 54 54 54 55 54 54 54 54 50 41 38 38 38 40 44 49 49 46 46 46 45 45 45 47 47 45
40 43 45 47 47 48 50 52 53 54 53 51 54 53 53 52 51 52 52 53 52 54 53 52 49 42 38 39 39 40 44 48 46 45 45 44 43 43 43 42 41 43
39 41 42 44 44 46 48 50 51 51 51 50 51 51 51 50 49 49 49 49 51 52 48 50 47 42 38 38 39 39 43 48 44 43 43 43 41 39 40 39 38 37
41 41 42 43 43 44 44 46 47 47 47 47 47 48 47 48 48 48 47 45 46 47 47 49 48 47 43 38 38 38 40 46 45 44 43 42 41 38 38 38 37 35

ECMWFNIL_sfc_dewp_018.txt.gz
Dewpoint
60 61 59 57 56 54 54 53 52 52 51 51 52 53 51 54 54 55 56 57 56 56 57 58 57 57 55 55 55 52 52 56 55 54 53 52 51 52 52 49 50 44
61 60 58 58 55 54 55 54 54 52 53 54 53 53 54 55 55 55 55 54 54 54 53 54 55 54 53 53 53 51 50 52 51 49 52 51 50 50 51 51 48 45
61 60 59 58 57 59 58 57 56 56 57 55 55 54 54 56 55 55 55 54 52 52 52 52 53 52 51 51 50 48 47 48 48 48 48 47 48 48 49 47 48 48
59 58 58 58 57 56 55 55 55 54 54 54 53 53 52 54 53 53 52 51 50 50 50 50 50 49 47 47 47 44 46 45 44 45 45 45 45 44 47 47 47 46
59 58 57 56 56 56 57 56 56 55 55 56 55 52 51 52 51 49 50 49 48 45 46 47 48 48 47 45 44 43 43 41 43 43 42 44 46 47 46 47 49 49
59 57 55 56 58 57 54 54 54 57 56 55 54 52 51 51 48 47 47 47 45 43 43 43 43 44 44 44 44 44 42 40 44 43 40 43 43 46 43 47 47 47
58 55 55 56 57 56 54 55 57 56 54 54 52 53 51 49 48 47 45 45 43 42 42 42 41 43 44 44 43 44 42 43 44 42 40 41 44 46 45 46 43 43
59 55 52 55 57 57 57 57 56 55 56 54 53 52 51 46 45 47 47 45 43 43 45 43 41 41 44 44 42 45 46 45 45 42 41 42 44 40 44 44 46 42
58 56 52 54 56 57 57 55 56 57 55 55 53 53 52 49 47 48 47 46 45 46 44 45 45 43 47 47 47 45 44 47 46 45 45 45 45 42 38 41 44 44
56 56 54 53 56 56 57 57 56 57 55 55 52 52 49 53 51 46 47 47 47 46 46 46 46 47 47 44 45 47 47 47 47 48 47 47 46 43 40 43 45 45
57 57 56 55 56 56 58 58 57 56 55 54 54 53 51 51 51 48 47 46 48 44 44 45 46 46 47 47 48 48 47 48 48 48 50 48 49 48 48 47 46 47
57 57 56 55 55 56 58 57 57 56 56 55 53 53 53 52 50 49 46 45 45 43 43 43 44 46 45 45 47 49 50 51 51 50 50 48 49 49 47 48 49 47
56 56 56 56 56 57 58 56 56 57 55 54 54 54 54 52 51 49 49 47 45 45 44 44 43 43 46 48 49 50 52 53 54 54 53 54 52 50 49 49 49 48
57 57 57 56 57 57 57 56 56 56 55 55 54 55 54 52 51 50 50 48 48 47 47 47 47 46 48 49 50 53 53 53 54 55 55 54 54 53 54 52 50 50
56 57 57 56 56 56 56 56 55 56 55 55 55 55 55 53 52 51 50 49 50 51 51 52 51 53 52 52 53 51 51 53 54 53 54 53 53 53 53 54 55 56
56 57 56 57 56 55 55 55 56 56 55 54 54 53 54 53 53 52 51 51 51 51 52 55 56 57 57 52 52 52 54 54 56 56 54 53 53 54 54 55 55 57
55 54 55 55 55 56 56 55 54 55 56 54 54 54 55 54 54 53 52 52 51 52 56 57 57 55 46 46 47 50 52 55 56 56 55 54 53 55 55 56 56 54
54 54 54 54 54 54 54 54 54 54 54 54 54 55 56 56 55 53 53 54 54 55 55 56 55 51 46 44 44 46 49 53 53 52 52 52 53 54 53 52 51 53
53 52 52 53 53 53 53 54 53 54 54 53 53 56 56 54 53 54 54 54 55 54 55 56 56 50 46 44 43 43 46 50 52 53 54 54 54 53 52 51 52 52
51 52 52 52 53 53 53 52 53 53 55 55 55 56 55 55 55 56 56 55 53 54 54 54 55 49 45 44 43 42 42 45 53 55 55 52 52 53 53 52 52 52
49 51 51 52 53 53 53 52 53 54 54 55 55 55 54 53 54 54 54 55 55 55 56 55 54 45 43 43 42 42 40 43 55 55 52 52 53 52 52 52 52 52
40 41 46 49 52 52 52 53 54 54 54 55 55 55 55 55 54 54 54 54 55 55 56 54 62 40 42 42 42 41 41 53 52 51 51 49 49 50 49 49 49 50
39 39 41 44 47 49 50 52 53 54 55 55 55 55 54 54 54 54 53 53 53 55 55 57 58 45 41 41 41 39 43 51 50 47 48 49 49 49 47 49 49 48
38 38 38 40 43 45 48 50 52 53 54 54 54 54 54 53 53 53 54 55 55 55 55 56 54 45 39 40 40 40 46 50 47 46 47 47 47 47 45 43 43 43
37 39 40 40 40 42 46 49 51 52 53 54 54 55 55 54 53 53 54 55 55 54 52 56 56 47 38 39 39 41 48 48 45 45 45 45 45 44 44 41 39 40
37 38 40 41 40 42 45 47 49 52 53 53 53 53 53 52 52 52 52 52 54 55 55 55 56 55 46 39 40 41 43 45 45 44 44 44 43 42 42 41 39 37

ECMWFNIL_sfc_dewp_021.txt.gz
Dewpoint
60 60 58 56 55 53 53 51 51 51 52 52 53 54 53 55 54 56 56 56 56 56 55 57 56 56 55 55 55 53 54 55 54 53 52 53 52 52 50 48 48 43
61 61 58 58 55 51 52 53 53 51 52 53 54 53 53 53 53 54 54 52 52 53 54 55 55 54 54 53 54 53 52 53 51 47 51 50 50 50 49 48 46 44
62 61 59 57 54 54 54 55 55 54 54 54 55 54 53 53 53 53 52 51 51 51 53 54 54 53 52 51 50 50 49 49 49 49 49 47 48 48 49 49 48 47
61 60 59 58 57 55 55 55 56 57 57 53 53 53 52 53 55 53 52 49 49 49 50 50 50 49 47 46 47 45 46 46 46 47 46 46 46 46 48 48 48 47
61 60 60 58 55 53 52 51 51 52 54 54 53 52 51 54 53 46 48 47 46 46 48 48 48 46 45 45 44 44 44 41 44 45 44 46 48 48 50 51 50 49
61 58 58 54 52 53 51 50 50 51 53 55 53 50 53 53 46 44 45 43 43 43 44 45 44 44 44 43 44 43 42 41 43 44 42 43 44 46 44 49 48 47
60 59 57 54 51 52 53 52 52 51 51 53 52 51 52 50 46 44 42 43 40 40 40 43 44 44 45 45 43 42 42 43 41 40 40 43 45 46 44 46 44 45
60 59 57 55 54 54 54 54 54 53 54 51 52 50 48 44 44 45 44 42 39 38 39 39 41 42 43 44 42 44 46 45 44 41 42 43 45 44 46 44 46 43
59 57 56 56 56 56 55 53 57 56 54 51 49 49 47 44 45 46 44 42 41 42 38 38 40 41 45 44 45 45 44 46 46 44 44 45 44 43 40 44 45 45
57 55 54 55 55 55 54 56 56 55 53 51 47 48 46 47 45 43 44 45 45 43 42 40 41 45 45 43 42 43 44 45 45 46 45 45 42 40 39 43 45 46
57 56 54 55 55 53 54 56 56 54 54 49 49 48 47 48 46 43 43 43 47 44 43 43 43 44 45 45 47 46 45 47 46 46 48 47 46 45 49 46 47 48
57 57 56 55 55 55 54 55 55 54 53 53 48 49 47 49 49 44 41 41 42 41 43 43 43 43 43 45 47 48 49 49 49 50 50 48 49 48 46 48 49 48
56 56 55 56 55 55 55 55 55 54 52 51 51 50 50 49 48 46 45 42 41 40 41 43 43 43 45 45 45 47 49 49 51 51 51 51 50 49 49 49 49 49
57 56 56 56 55 55 55 56 56 54 53 51 51 51 51 50 47 47 48 44 44 41 42 43 43 43 43 44 45 47 50 52 53 53 53 54 54 53 53 52 52 52
57 57 57 57 55 56 56 56 56 54 53 51 53 53 54 51 50 48 47 46 44 45 42 43 45 45 45 47 47 49 52 53 55 54 55 54 54 54 54 54 54 55
55 58 57 58 57 57 56 56 56 55 54 54 54 54 53 53 52 51 48 48 46 45 46 47 47 48 57 49 49 51 52 52 56 55 54 54 54 54 55 57 57 56
56 56 57 56 55 56 57 56 56 56 56 54 54 54 54 54 50 52 52 50 47 48 48 50 51 55 46 44 44 46 52 53 52 54 53 54 53 53 53 56 57 54
55 55 54 55 56 55 55 55 56 56 56 56 56 56 56 55 55 52 53 53 52 50 50 53 54 49 44 44 45 45 48 54 53 52 53 53 51 51 52 56 57 57
52 53 53 54 54 54 55 55 54 55 56 56 57 57 57 55 56 55 56 53 54 51 52 54 57 43 43 43 44 44 46 49 51 52 51 51 50 49 50 52 55 52
50 49 50 52 54 54 54 53 54 54 55 56 56 56 56 56 57 56 54 53 54 54 55 57 56 45 42 43 43 42 44 47 52 54 53 51 51 52 53 52 51 50
43 47 50 51 53 53 54 53 53 54 55 56 56 57 56 55 59 57 55 54 54 55 56 57 55 45 43 42 42 42 43 45 53 53 54 55 56 55 56 54 51 51
40 40 42 43 47 50 52 53 54 55 55 56 56 56 56 56 56 57 57 55 55 56 55 52 53 46 45 43 42 42 43 52 52 52 56 55 55 56 53 50 49 49
38 40 41 41 42 44 46 50 51 52 54 55 56 56 55 56 56 56 57 56 56 55 54 55 56 49 43 44 43 42 44 52 52 53 53 54 52 51 48 48 52 51
38 37 39 41 41 41 42 45 47 48 49 51 52 53 55 56 56 55 55 55 56 55 55 56 56 51 41 43 42 41 46 53 51 51 51 51 48 46 49 50 48 44
35 38 39 40 41 42 44 44 45 46 47 48 49 51 52 53 54 54 54 54 54 55 54 55 55 50 40 41 41 41 47 52 51 49 49 48 44 44 47 47 45 42
32 34 38 40 41 42 43 43 44 45 46 47 49 48 48 51 52 53 54 54 54 54 57 55 55 54 46 40 41 41 43 53 51 47 47 48 48 48 42 42 43 40

ECMWFNIL_sfc_dewp_024.txt.gz
Dewpoint
61 61 61 61 61 58 60 57 57 60 61 61 60 58 60 60 59 59 61 61 60 61 61 61 61 60 60 58 59 56 57 60 59 59 58 58 57 56 53 51 53 48
63 62 60 61 58 58 59 60 60 60 60 60 59 58 58 59 60 59 57 58 59 60 60 61 61 61 59 58 59 58 56 54 52 52 55 53 52 53 55 55 54 54
62 62 61 60 58 59 59 59 60 61 61 59 58 58 57 60 60 60 61 58 57 58 60 59 57 56 56 57 57 56 55 55 54 54 53 52 55 54 54 52 50 51
62 62 61 59 58 58 59 60 61 60 58 58 57 57 57 58 60 59 57 56 57 58 58 58 58 57 53 53 56 55 54 53 53 54 53 54 54 54 54 55 54 51
62 61 61 59 58 58 59 59 59 59 58 58 58 57 56 57 57 56 57 56 56 55 57 56 54 54 55 54 52 52 52 51 53 53 52 52 54 54 54 54 53 53
61 60 59 57 57 57 56 56 56 57 58 58 58 56 56 56 56 54 53 52 54 53 54 54 53 54 54 53 53 51 52 51 51 51 49 50 52 54 49 53 52 52
61 62 60 56 56 56 54 55 55 57 58 58 55 57 57 56 54 53 49 51 49 50 50 53 54 54 54 53 52 54 51 50 50 48 47 50 52 52 50 52 49 49
61 61 58 56 57 57 55 54 55 56 58 57 58 57 56 54 52 54 52 50 46 47 50 49 52 52 52 53 52 53 52 53 52 50 48 49 51 50 51 50 53 49
61 60 58 57 58 57 56 54 55 56 54 56 56 57 57 54 52 54 52 50 48 49 46 49 50 51 54 54 53 52 51 53 54 51 52 53 52 49 45 50 50 50
59 59 59 57 57 57 57 57 56 56 54 54 52 53 50 52 54 51 53 53 50 46 46 48 49 53 53 49 51 52 52 52 50 51 52 52 50 47 45 50 50 51
59 58 59 59 58 57 57 59 58 57 57 52 53 53 52 54 50 51 52 52 53 47 44 46 49 50 51 51 54 53 53 54 51 50 53 52 52 49 52 51 52 52
59 58 57 58 58 58 58 60 58 57 57 56 50 49 55 56 51 51 45 46 48 49 46 45 45 50 48 47 48 53 54 54 53 53 53 52 54 50 50 53 54 53
57 57 58 58 59 59 59 59 60 60 56 56 54 52 52 55 54 51 52 48 46 49 50 48 47 46 50 52 50 51 52 52 56 55 55 56 53 53 53 54 54 54
58 58 58 59 59 59 57 58 58 60 60 59 58 55 52 49 53 54 52 51 49 47 50 50 50 48 48 50 50 54 55 56 56 56 55 56 55 55 56 55 57 56
60 59 59 59 57 58 58 59 59 60 59 59 59 59 57 52 52 52 54 50 51 50 48 50 50 50 49 49 49 50 53 55 55 54 56 56 56 56 57 57 58 59
57 59 59 59 60 60 60 60 59 61 60 58 58 58 58 58 56 53 50 50 50 50 50 53 51 53 50 46 47 50 52 53 56 56 57 55 56 56 56 57 57 57
56 57 57 57 60 59 60 60 60 61 61 59 58 58 58 59 58 56 56 53 49 49 51 54 54 55 43 42 44 45 52 56 57 57 56 56 55 55 56 57 57 56
57 56 56 57 59 58 57 59 60 59 59 59 60 59 59 58 59 57 56 57 58 55 55 54 54 48 41 43 44 45 49 56 56 56 56 55 54 53 54 56 57 57
53 53 55 57 57 57 59 59 59 58 58 58 58 60 60 59 60 59 57 58 58 57 55 54 51 42 42 42 43 44 46 51 54 55 53 54 53 53 52 56 57 58
52 53 53 55 57 57 58 57 57 56 58 58 57 58 60 59 59 58 59 58 58 57 57 55 54 49 43 43 43 43 43 48 54 54 54 53 53 52 53 55 55 55
42 46 51 53 56 57 57 55 56 55 56 57 56 57 58 57 57 59 58 58 58 58 58 56 55 48 44 42 43 43 42 45 54 55 55 55 53 53 54 55 55 55
40 41 43 44 46 54 55 55 55 58 57 58 58 58 58 58 58 58 57 56 57 59 56 56 56 48 45 42 42 42 42 51 53 54 55 54 54 56 57 55 55 55
38 40 43 42 44 45 44 48 55 55 57 57 57 57 58 58 58 58 57 57 57 57 56 55 55 50 45 44 42 41 44 51 52 51 51 52 54 56 57 54 55 53
34 35 38 41 42 42 45 47 47 49 51 55 55 55 56 56 56 57 57 57 56 56 56 56 55 52 45 44 43 41 45 51 52 51 50 52 56 55 53 52 50 46
35 36 37 40 41 43 46 46 46 46 47 48 51 54 53 53 54 56 55 55 56 56 54 55 55 52 43 43 42 42 45 51 52 51 51 51 54 52 52 49 44 42
35 37 39 40 39 41 44 46 46 46 47 47 48 46 46 48 50 50 53 55 56 55 55 55 56 56 53 44 43 42 43 50 53 53 51 52 52 46 48 46 43 43

ECMWFNIL_sfc_dewp_027.txt.gz
Dewpoint
56 56 54 53 54 54 54 53 52 54 54 56 55 55 56 57 57 57 57 57 57 58 57 56 57 58 58 58 58 58 59 59 58 57 56 55 54 51 50 47 47 47
58 57 57 55 55 54 52 52 55 56 56 56 55 55 55 56 55 53 54 55 55 55 56 57 57 57 57 55 54 53 52 52 51 51 49 49 51 49 48 48 47 47
58 58 56 54 54 54 55 56 56 56 55 54 54 54 54 53 53 54 55 55 54 55 54 53 53 54 54 53 53 52 52 52 51 51 51 50 49 47 48 50 50 49
58 58 55 55 55 56 57 56 55 54 54 53 53 54 54 55 54 53 54 56 54 54 54 54 52 50 50 51 50 49 48 48 49 49 49 51 53 52 50 49 48 47
59 57 55 55 57 57 56 55 54 54 53 53 53 53 54 51 50 50 51 52 51 52 51 49 50 51 51 49 48 47 48 49 50 50 50 50 50 50 50 50 49 50
58 56 55 56 57 56 56 55 55 54 53 52 52 53 51 51 50 51 50 50 51 49 48 47 48 49 47 47 46 47 49 49 49 49 50 50 50 50 49 49 49 48
57 55 55 55 55 55 55 55 55 54 52 52 52 50 51 51 50 47 47 49 48 49 47 48 47 46 47 46 46 48 48 47 47 48 49 49 49 49 49 48 49 49
57 55 54 53 53 53 53 54 55 54 53 52 50 51 51 50 48 46 47 46 46 47 48 48 48 47 48 48 48 47 46 49 48 47 48 49 49 48 47 49 49 47
56 54 54 53 52 52 52 53 54 54 53 53 52 51 52 50 47 47 45 45 46 46 46 46 46 46 50 48 46 46 47 49 50 48 49 49 47 47 48 47 47 47
56 54 54 54 52 52 52 53 53 52 53 53 52 51 49 51 51 49 47 47 45 44 44 45 46 50 48 46 49 50 50 49 48 49 50 47 47 46 46 46 46 47
57 55 55 54 54 54 53 54 53 52 52 51 52 50 49 50 51 49 49 45 45 43 45 46 47 48 45 46 50 50 48 47 47 48 48 47 47 47 51 48 49 47
56 56 55 55 55 55 55 55 55 54 53 52 52 50 50 51 49 49 48 48 45 43 44 46 46 48 46 47 49 50 48 47 48 47 49 49 47 48 49 48 48 47
56 56 56 56 55 55 57 56 55 55 55 52 51 50 51 50 46 47 48 48 48 46 44 46 47 48 46 47 48 50 49 48 48 50 52 50 48 49 49 50 51 50
56 56 56 56 56 56 56 56 56 55 54 54 51 50 49 51 48 48 48 48 46 48 47 46 46 47 48 47 47 50 49 52 50 51 51 49 51 52 54 55 55 54
57 57 56 56 56 55 55 56 55 54 55 55 54 51 50 49 51 51 48 47 47 47 49 48 46 48 50 48 50 51 51 52 51 51 51 51 55 54 54 55 55 55
58 57 57 56 56 56 56 56 56 55 55 54 54 54 51 49 49 50 50 47 48 48 48 50 49 49 51 48 49 50 51 51 52 51 53 53 54 54 54 54 55 54
57 57 57 56 56 56 57 57 56 57 56 56 55 54 53 53 53 52 50 49 47 48 48 50 50 50 45 43 44 46 50 52 52 51 53 53 54 54 53 54 53 54
57 57 57 56 56 56 56 56 56 56 55 55 55 56 56 55 53 53 53 53 51 49 51 51 50 48 41 42 42 44 47 52 54 54 54 54 54 54 54 54 54 54
56 56 57 56 56 55 56 55 54 54 55 55 54 54 55 55 55 54 54 54 53 52 51 51 50 44 43 41 41 43 45 51 54 54 53 53 54 54 54 54 54 53
46 50 50 54 54 54 54 54 54 53 54 54 53 54 54 54 54 54 54 54 53 52 51 51 50 45 43 42 42 41 44 49 54 54 53 53 53 53 53 55 55 54
39 41 42 44 50 53 53 52 53 52 53 53 53 53 53 53 54 53 53 53 53 52 51 51 52 45 42 43 43 43 44 48 54 54 53 53 53 52 51 54 54 54
35 36 38 41 43 44 46 46 48 51 52 52 52 52 52 53 53 53 53 52 52 52 51 51 52 46 42 41 42 42 43 48 50 52 52 52 52 52 51 53 54 54
34 35 36 39 40 42 43 44 44 44 47 51 51 51 51 52 53 53 53 53 51 52 51 51 51 49 44 43 41 41 44 48 48 49 50 51 51 52 53 54 54 54
35 36 38 39 38 39 40 41 43 43 43 45 44 47 51 53 52 52 52 52 52 53 53 52 52 50 46 43 43 40 45 49 49 49 48 48 51 52 52 50 48 48
37 38 38 38 37 38 39 38 39 40 40 41 43 44 44 47 52 53 52 52 53 53 53 53 52 51 47 44 43 42 44 48 49 49 48 47 49 51 51 49 46 45
37 38 38 38 38 37 38 38 38 37 37 39 40 42 44 45 44 46 51 53 52 52 53 54 53 53 50 45 44 42 42 48 50 50 49 48 49 52 51 47 43 42

ECMWFNIL_sfc_dewp_030.txt.gz
Dewpoint
53 53 53 53 53 52 53 53 53 54 54 54 54 52 53 54 56 56 55 55 55 55 56 57 57 57 58 58 58 59 58 57 57 57 57 56 55 55 55 55 53 53
53 54 54 54 54 53 53 53 53 53 54 54 54 54 54 55 54 55 55 55 55 55 55 56 56 56 56 57 57 56 55 54 52 53 51 51 50 49 49 49 48 48
54 54 54 53 53 53 52 53 54 55 55 55 55 55 54 54 53 53 54 54 54 54 55 55 55 54 54 53 53 52 51 49 49 50 49 47 47 46 47 47 47 47
55 54 54 53 53 53 55 55 54 55 54 54 54 54 54 54 54 54 54 56 53 52 53 52 52 51 51 50 50 50 49 49 49 50 51 50 50 49 49 49 49 48
55 54 54 54 55 56 55 54 54 53 53 53 53 54 54 52 52 52 52 52 51 51 51 50 50 50 50 49 49 48 49 49 50 50 49 49 48 48 48 48 49 49
54 54 55 55 55 54 53 53 53 52 53 52 53 52 51 51 51 51 51 50 49 48 49 49 49 48 48 47 48 48 49 49 49 49 49 49 49 49 48 48 48 48
54 55 55 55 54 53 53 53 52 52 52 52 52 50 50 50 50 50 50 49 47 48 47 47 46 46 47 47 48 48 48 48 49 50 49 49 49 48 49 49 49 48
54 55 55 55 54 54 53 53 52 51 52 51 50 50 50 49 48 49 49 48 47 47 47 46 46 45 46 46 47 47 47 49 48 49 48 48 47 47 47 48 47 46
54 54 54 54 53 54 53 53 52 51 51 50 50 50 50 48 47 48 48 47 47 47 47 45 45 45 46 47 46 46 46 47 49 48 48 47 47 47 47 47 46 47
53 53 53 53 53 53 53 53 52 52 51 50 50 50 49 48 46 46 46 46 46 46 46 45 45 47 47 46 45 45 46 47 48 48 49 47 47 47 46 46 46 47
56 54 52 52 52 53 53 53 52 52 52 50 50 49 49 48 48 46 46 46 46 45 45 45 47 48 46 46 47 47 47 48 48 49 48 47 47 46 48 46 47 46
57 57 56 52 53 52 53 52 51 51 51 51 49 48 49 49 50 47 46 44 44 44 45 45 47 47 45 47 48 48 48 47 48 48 47 46 46 47 47 46 46 46
57 56 55 55 54 53 53 53 51 51 51 50 51 48 48 48 49 48 47 43 43 44 45 46 47 46 46 48 49 47 47 46 47 47 47 46 46 47 47 47 46 47
56 56 56 55 55 55 55 54 53 53 53 51 52 49 49 49 48 48 47 45 43 44 45 46 46 46 45 47 48 47 46 46 46 47 48 47 46 47 47 47 47 47
56 56 56 56 56 56 56 55 55 54 54 53 51 50 51 49 47 47 47 47 46 44 45 47 47 46 46 46 47 48 47 46 47 50 49 47 47 48 49 50 50 50
56 56 56 55 56 56 56 55 54 55 54 53 53 50 49 49 47 49 46 47 46 45 45 47 47 47 49 47 47 48 48 48 49 50 49 49 50 50 50 51 52 51
56 56 55 55 55 55 55 56 56 55 55 55 54 53 51 49 49 49 47 46 46 46 46 47 47 48 45 42 42 45 48 49 49 50 50 51 52 51 52 52 50 50
54 54 54 54 55 55 55 55 55 55 55 54 54 54 54 53 51 50 49 48 47 47 46 47 47 46 43 42 42 43 46 50 50 49 51 51 52 52 52 52 52 52
51 54 54 54 54 54 54 54 53 54 54 54 54 53 53 54 53 52 52 51 50 49 48 49 48 45 43 42 41 42 43 47 50 49 51 52 52 52 52 52 52 52
39 41 44 49 51 52 52 53 53 53 53 53 52 52 51 52 52 52 52 51 50 49 49 48 48 47 42 42 41 40 41 44 50 50 51 52 53 53 53 53 53 53
37 39 40 42 43 44 44 45 48 50 51 51 51 52 52 52 51 51 51 51 51 51 50 50 50 47 42 41 41 40 40 41 49 52 51 51 53 53 53 53 53 53
38 38 38 38 39 39 39 41 42 44 45 48 49 49 49 50 50 51 51 53 53 52 51 51 52 47 42 41 41 41 41 46 49 52 52 52 52 52 52 53 54 53
38 38 38 37 38 37 37 37 38 38 39 43 43 44 46 47 49 50 50 50 51 52 52 52 51 48 43 41 41 41 43 49 50 52 52 52 52 51 52 52 53 53
39 39 38 38 37 37 37 38 38 38 37 39 39 39 40 42 45 47 49 49 50 50 50 50 51 49 44 42 41 40 44 49 50 51 51 51 51 51 51 51 51 52
38 38 38 37 37 37 38 37 37 37 38 38 38 38 39 40 42 43 44 45 47 48 52 51 51 50 46 43 42 41 43 47 48 49 49 49 50 50 49 49 46 46
38 38 38 38 37 37 38 38 38 37 37 37 37 37 37 38 38 38 38 39 41 45 47 49 50 51 50 46 44 42 42 48 48 47 47 48 49 50 50 48 45 43

ECMWFNIL_sfc_dewp_033.txt.gz
Dewpoint
53 53 53 52 52 52 53 53 53 54 53 53 53 52 53 53 55 54 54 54 54 55 55 56 56 57 58 57 57 58 57 57 56 55 56 56 55 56 56 55 54 55
53 54 54 53 53 53 53 53 53 54 53 52 52 53 53 54 54 54 54 54 54 54 54 55 55 55 56 57 57 57 55 55 54 56 55 54 54 55 55 54 55 53
53 54 53 52 52 53 52 52 53 53 54 53 53 53 54 53 52 52 53 54 54 53 54 54 53 54 54 54 55 55 53 51 50 50 52 51 50 51 51 51 50 50
54 53 53 53 53 53 53 53 53 54 54 54 53 53 54 54 52 53 54 55 53 52 51 52 52 52 52 52 52 50 50 50 49 49 49 49 49 48 48 48 49 48
53 53 53 53 54 55 54 53 53 53 53 53 53 53 54 53 52 52 51 51 52 51 50 50 50 50 50 50 49 49 49 49 49 49 49 48 48 48 48 48 48 47
54 53 54 54 54 54 53 53 53 53 53 52 53 53 52 52 51 51 50 50 49 50 49 49 49 49 49 48 48 48 49 49 48 48 48 48 48 47 49 48 47 46
54 54 54 54 54 53 53 53 53 53 53 52 52 50 50 51 50 50 49 48 48 50 49 48 47 47 47 48 48 47 47 48 48 48 48 47 49 48 48 47 47 46
54 54 54 54 53 53 52 52 52 52 52 51 50 49 50 50 50 49 48 47 47 47 47 47 47 46 46 47 47 47 47 49 49 48 48 47 46 47 46 48 46 45
55 54 54 53 53 53 52 52 52 51 52 50 49 49 49 49 49 48 48 47 47 47 46 45 46 46 46 47 46 47 47 47 48 47 47 46 46 46 46 46 45 46
54 54 53 53 53 53 52 51 51 51 51 50 50 49 48 47 47 48 47 46 47 46 45 44 45 45 46 46 46 46 46 47 47 47 46 46 47 46 46 45 45 45
54 53 53 53 53 53 52 52 51 51 50 49 49 48 48 46 47 46 46 45 46 45 45 44 45 46 46 45 45 45 46 46 46 47 47 46 46 46 49 45 46 45
55 55 54 53 53 53 52 52 52 51 50 49 49 48 47 46 46 45 46 45 45 45 45 45 46 46 46 45 46 46 46 46 46 47 47 46 46 46 47 46 46 46
55 55 54 54 55 54 54 53 51 51 51 50 50 48 48 47 47 46 47 45 45 45 45 46 47 47 45 45 46 46 46 46 46 46 46 46 46 46 46 46 46 47
55 55 55 55 55 55 54 53 52 51 51 50 50 47 47 48 48 47 46 45 45 44 45 46 46 46 44 46 47 47 47 46 46 46 46 46 46 46 46 46 47 47
55 55 55 54 54 54 54 53 53 52 51 51 50 49 49 48 48 47 46 45 44 44 44 46 46 46 46 46 46 46 46 46 46 46 46 46 46 46 46 46 46 46
55 55 55 54 53 53 54 54 54 53 52 52 51 50 49 49 48 47 47 46 44 44 43 45 46 46 48 47 47 47 46 46 46 46 46 46 46 46 46 48 48 47
55 55 55 54 54 54 55 55 54 54 53 53 53 52 50 48 48 47 46 46 45 44 43 45 46 47 45 43 42 45 47 46 46 46 46 46 46 46 46 48 49 48
54 54 54 54 55 53 52 53 53 53 53 52 52 53 53 50 48 48 48 46 46 45 44 44 45 46 43 42 41 41 45 47 47 47 48 47 48 48 47 48 49 49
49 49 50 50 52 53 53 52 53 53 53 53 52 52 52 53 52 51 50 49 46 46 46 46 45 44 42 42 41 40 40 44 47 47 48 48 49 49 49 49 50 50
39 39 39 40 41 42 44 46 48 49 50 50 50 51 51 51 51 51 50 50 50 49 48 48 47 46 45 44 42 40 39 41 46 47 48 48 50 50 50 50 50 51
39 39 39 38 38 38 39 40 40 40 42 44 45 46 48 49 49 50 50 51 50 50 49 49 49 47 44 42 41 40 40 40 44 46 48 48 49 50 51 51 51 52
42 40 41 40 39 38 38 39 39 38 39 42 42 41 42 43 45 46 48 50 51 49 49 50 51 46 42 41 40 40 40 43 44 45 47 48 50 50 51 51 52 52
40 40 41 39 38 37 36 37 37 37 39 40 39 39 41 41 42 43 44 45 47 49 49 50 50 48 44 43 42 40 41 45 46 46 47 48 50 50 51 51 52 52
40 39 39 38 37 37 37 37 37 37 37 38 37 36 37 38 40 40 40 41 42 43 46 47 48 48 44 44 43 41 42 47 48 48 48 48 49 50 51 51 51 52
40 40 39 38 39 39 38 37 37 37 37 37 36 36 36 36 38 37 38 38 40 41 45 44 45 45 43 42 41 42 43 45 47 48 49 49 49 50 50 50 51 50
38 39 39 39 39 39 40 39 37 37 36 36 36 35 35 36 36 36 36 37 39 40 40 41 43 43 43 40 40 40 41 45 46 47 47 48 49 50 50 50 48 47

ECMWFNIL_sfc_dewp_036.txt.gz
Dewpoint
57 56 56 55 55 55 55 54 55 55 55 55 55 54 55 55 56 55 55 55 55 56 57 57 58 58 59 59 59 59 59 58 58 57 57 57 57 57 57 56 56 57
55 55 55 54 54 54 54 55 54 55 54 54 54 54 54 55 55 54 55 56 56 55 56 56 57 57 58 58 59 59 58 58 57 58 57 57 56 57 57 56 56 56
54 54 53 53 53 53 54 54 54 54 54 54 54 55 55 55 54 53 54 55 55 55 55 55 56 57 57 57 58 58 57 56 56 56 57 56 55 56 56 56 56 56
54 53 52 53 53 53 53 53 53 54 54 54 55 55 55 54 54 54 56 57 54 54 53 54 55 55 55 55 55 54 54 54 53 54 54 52 54 55 54 55 54 54
53 53 53 53 53 53 54 54 54 54 54 54 53 54 55 54 53 52 53 53 53 52 52 52 52 52 52 52 52 51 51 51 50 51 50 50 50 52 51 53 52 53
53 53 53 53 53 53 53 53 54 53 53 53 53 54 53 53 52 52 52 52 52 51 50 51 51 50 51 50 51 51 51 50 50 50 49 49 49 50 49 50 50 50
53 53 53 54 53 53 53 53 53 53 53 53 53 52 52 52 51 51 50 51 51 51 50 50 49 49 50 50 50 49 50 50 49 49 48 49 50 49 49 48 48 48
53 53 53 53 53 53 53 53 53 53 53 52 51 51 51 51 50 50 49 50 49 49 49 48 48 48 49 49 49 49 50 50 49 48 48 48 49 48 49 48 48 48
54 54 53 53 52 52 52 52 52 52 52 51 50 50 51 50 49 48 48 48 48 48 47 47 47 47 48 48 49 49 49 49 49 49 48 48 48 48 47 47 47 48
54 54 53 53 52 52 52 52 52 52 51 50 50 50 49 49 48 48 47 47 48 47 46 46 47 47 47 48 48 48 49 49 48 48 48 48 48 47 46 47 47 47
54 53 53 53 52 52 52 51 51 51 51 50 49 49 48 48 49 47 46 46 47 46 45 45 46 47 46 47 47 48 48 49 48 48 48 48 48 47 50 47 48 47
54 53 53 53 52 52 52 52 51 51 50 50 49 48 47 47 47 48 47 46 46 46 46 45 46 47 46 46 47 48 48 48 49 49 48 48 47 47 48 48 48 48
52 54 54 54 53 53 53 52 51 51 50 50 50 48 47 47 47 46 49 46 46 46 46 46 47 47 46 47 47 47 48 48 48 48 48 48 48 47 48 48 48 48
55 54 55 55 54 54 53 52 51 51 50 51 49 48 48 48 47 46 47 46 46 46 47 48 47 46 46 47 47 47 48 47 48 48 48 47 47 47 48 48 48 49
54 55 55 54 54 54 53 53 53 52 52 51 50 50 50 49 49 47 47 47 46 45 45 47 47 47 47 47 48 47 47 47 47 48 48 48 47 46 47 47 47 48
54 54 54 54 54 54 54 54 53 53 53 52 52 51 50 50 49 48 48 47 47 46 45 46 47 47 49 47 47 48 47 47 47 47 47 48 48 47 47 48 48 49
54 54 54 54 54 54 54 54 53 53 52 52 52 51 50 49 48 48 47 48 48 46 46 45 47 47 45 43 43 45 47 47 47 47 48 48 48 47 47 47 48 50
52 53 53 53 53 53 53 53 53 52 52 52 52 52 52 50 50 49 48 47 47 46 45 46 47 45 42 42 41 41 44 48 47 47 48 48 48 47 47 48 48 49
43 43 43 45 46 48 48 47 46 46 47 48 49 50 51 51 51 52 51 50 48 47 48 48 48 44 42 42 42 41 41 43 47 48 47 48 49 49 48 48 48 49
40 40 40 40 40 40 40 39 40 42 44 45 46 46 47 47 48 49 50 51 51 50 50 50 50 43 41 41 41 40 40 41 45 47 48 48 49 49 50 50 49 49
39 39 39 39 39 40 40 39 38 39 39 41 42 43 43 44 45 44 46 48 49 49 50 50 48 41 41 41 41 41 39 41 45 45 46 48 49 50 50 50 51 51
40 39 38 39 39 38 39 38 38 38 38 40 40 39 40 40 41 42 42 43 45 47 48 47 46 39 39 40 41 41 43 47 46 46 46 47 47 48 50 51 51 51
41 40 40 40 40 39 38 39 38 38 38 39 37 37 38 38 40 40 41 41 42 43 44 44 44 40 38 38 39 41 44 48 48 48 47 48 48 49 50 50 51 51
40 39 38 38 38 38 39 40 40 40 38 38 36 36 36 37 39 38 38 40 40 41 43 42 42 41 38 38 38 39 43 47 48 48 48 48 49 50 50 50 51 50
39 39 39 39 38 38 39 39 39 39 39 40 38 36 36 36 37 35 36 37 39 40 41 41 41 41 38 37 37 38 42 45 47 47 48 48 48 49 50 50 51 50
38 39 39 38 39 39 40 41 41 40 39 38 39 37 36 36 35 35 36 37 37 37 38 39 40 40 39 37 37 37 38 43 45 45 46 47 48 48 49 50 50 50

ECMWFNIL_sfc_dewp_039.txt.gz
Dewpoint
63 64 63 63 63 63 63 62 62 63 62 62 62 62 62 62 62 63 63 63 64 63 62 63 63 64 64 64 64 63 63 64 64 63 63 63 62 63 62 62 63 62
63 63 63 63 62 62 63 63 62 62 61 61 62 61 61 61 61 61 61 62 62 63 63 63 63 63 63 63 63 64 63 64 64 61 63 63 62 62 63 63 63 63
62 62 62 63 62 62 62 63 62 62 61 61 61 62 61 62 61 61 62 63 62 63 63 63 64 63 64 63 62 63 63 64 63 63 63 61 62 62 63 63 62 62
61 61 62 62 62 61 62 61 61 61 61 60 61 62 61 61 62 61 62 62 63 63 63 63 64 63 62 62 62 61 62 63 63 63 63 62 62 62 63 62 62 61
60 60 61 61 61 61 61 61 60 60 60 61 61 61 60 60 61 60 61 61 62 62 62 62 62 63 62 62 62 62 62 61 61 62 61 62 62 62 62 62 62 62
59 58 59 59 60 60 60 59 59 59 60 60 61 60 60 60 59 59 60 60 60 60 60 61 61 61 61 61 61 61 61 59 60 61 60 60 59 59 58 60 61 61
59 59 59 59 59 59 59 60 60 59 59 60 59 59 59 59 59 59 59 59 58 58 58 59 59 60 60 60 60 59 59 59 57 57 56 56 57 57 56 59 59 59
59 59 58 58 59 59 59 58 59 59 60 59 59 59 58 57 57 59 59 58 57 57 57 57 57 57 57 58 58 58 58 56 56 54 53 53 55 54 55 55 58 57
58 58 57 58 58 58 59 58 59 59 58 59 58 58 58 57 57 58 57 57 56 56 55 55 55 55 56 56 57 56 55 55 55 54 53 54 54 53 49 51 54 55
57 57 57 58 58 58 59 59 58 58 57 58 57 57 55 56 56 55 56 56 55 54 54 54 53 54 53 52 52 54 53 53 53 54 54 54 53 51 49 51 53 54
58 57 57 58 58 58 59 59 58 57 57 56 57 56 55 54 53 54 54 54 55 52 51 52 53 52 51 52 55 56 55 54 53 52 54 53 54 53 53 53 53 54
58 58 58 58 58 58 58 58 57 57 56 56 55 55 55 54 52 51 50 50 51 51 50 50 50 52 51 51 51 53 55 56 55 54 52 51 53 52 51 52 54 52
58 57 57 57 57 57 57 56 56 56 55 54 54 54 54 53 52 50 52 49 49 50 50 50 49 49 51 52 51 51 53 54 55 54 54 54 53 52 52 53 52 51
59 59 58 57 57 55 55 55 54 54 54 54 53 54 53 51 51 51 52 50 51 49 50 51 51 49 49 49 48 51 53 53 54 55 53 54 55 53 53 52 53 54
56 57 57 57 56 56 55 55 54 54 53 53 54 54 55 52 52 51 50 49 49 51 50 51 51 52 49 50 50 51 52 53 53 51 53 52 53 53 53 52 52 54
56 56 57 57 57 57 57 56 56 56 56 55 54 53 53 53 52 52 50 50 49 49 51 53 53 53 51 47 47 51 52 50 54 54 51 51 51 52 54 54 53 53
56 56 55 55 56 56 56 55 55 56 56 56 56 56 55 53 53 52 52 52 51 51 50 50 51 49 43 43 44 45 50 53 52 53 54 53 52 52 51 53 55 53
50 48 48 49 49 49 49 48 49 49 51 52 54 55 56 56 56 55 54 53 52 52 55 55 53 42 41 41 41 43 46 52 52 52 53 52 52 51 50 52 53 55
46 45 45 46 45 45 46 46 46 46 47 48 49 51 52 53 55 56 56 57 56 54 53 51 49 40 40 40 40 40 41 47 49 51 51 51 52 52 52 52 54 54
44 43 44 44 45 44 44 44 44 45 47 46 46 47 48 49 50 51 54 54 52 50 48 47 45 40 39 40 40 40 39 44 51 53 53 52 52 52 53 53 53 53
43 42 40 40 40 41 41 40 43 42 42 43 43 44 45 45 46 47 49 50 50 49 47 45 42 38 38 39 39 41 42 46 54 54 53 53 53 53 54 54 54 55
40 40 40 40 40 40 40 40 41 41 42 42 43 44 44 42 43 44 44 45 46 47 46 43 42 37 37 37 38 39 43 53 55 55 55 55 55 54 54 54 54 54
41 41 41 40 40 40 40 42 41 42 41 41 42 41 42 40 41 41 41 43 43 44 45 43 42 38 37 37 37 38 46 50 52 50 52 54 54 55 55 55 55 55
41 41 40 40 43 42 41 42 44 42 42 42 39 39 42 40 40 40 40 41 42 42 43 43 42 40 37 37 37 37 41 47 46 47 50 51 52 55 53 54 54 51
39 40 40 39 41 42 44 43 41 41 42 42 41 40 40 39 38 39 39 39 40 41 41 43 43 41 37 36 37 37 42 45 43 43 46 48 48 49 52 51 53 52
38 39 39 39 39 40 41 42 42 44 44 43 43 41 42 42 40 39 40 40 40 40 40 41 41 42 39 36 37 37 38 44 43 42 43 45 46 46 46 49 50 52

ECMWFNIL_sfc_dewp_042.txt.gz
Dewpoint
65 62 62 61 61 63 62 62 61 60 61 60 60 60 60 61 62 62 62 62 62 62 62 63 63 63 62 64 65 62 62 64 63 64 64 64 63 63 62 62 62 60
63 64 62 61 63 63 63 63 62 61 61 60 60 59 60 61 62 62 62 62 62 61 62 63 62 62 62 63 65 64 62 63 64 62 64 65 63 64 64 63 64 63
64 64 62 63 63 62 61 61 62 60 59 60 61 61 61 63 62 61 61 61 60 60 63 62 62 61 61 60 63 64 62 63 63 63 63 62 63 63 63 64 63 64
63 63 61 63 62 61 61 60 59 59 60 60 59 59 60 62 61 61 61 60 60 60 61 61 62 61 60 60 61 62 63 63 62 63 63 63 63 62 63 63 63 63
63 62 60 61 60 60 60 59 58 58 57 58 60 60 59 60 60 58 59 59 59 59 60 59 60 60 61 60 60 60 64 63 63 63 61 62 62 63 63 63 63 62
64 61 59 58 60 60 59 58 57 58 58 59 59 57 58 58 57 57 58 58 58 58 58 58 58 59 60 60 61 63 63 61 62 62 61 61 60 61 60 62 62 62
64 62 60 60 60 60 59 58 59 59 59 59 57 58 57 57 56 56 55 56 55 55 55 57 58 59 60 60 62 63 62 62 61 60 58 57 58 59 58 61 60 59
64 63 61 60 61 60 59 58 59 59 59 58 58 58 56 54 55 56 56 55 54 54 55 55 56 57 59 60 58 62 62 62 61 58 56 54 57 56 58 58 62 60
64 63 61 62 61 60 59 57 58 59 58 58 56 56 56 55 56 56 56 55 55 54 53 55 56 55 59 58 58 58 58 60 60 58 56 55 55 54 52 56 60 60
63 63 63 62 60 59 59 58 58 58 57 57 56 56 55 56 56 55 55 55 55 53 52 54 55 56 57 55 56 55 55 57 58 56 54 54 52 50 47 50 53 56
63 62 63 62 61 59 59 59 58 58 57 56 57 56 56 56 55 54 54 53 56 52 50 52 53 53 54 54 55 54 53 54 52 50 53 52 52 49 53 50 51 52
61 61 61 61 60 59 59 58 58 58 57 57 55 55 56 55 54 53 50 50 51 50 49 50 50 51 50 51 52 53 53 52 51 50 50 50 51 48 48 50 51 50
59 60 61 61 59 58 58 57 57 58 57 55 56 56 55 54 52 52 52 50 50 51 50 49 49 49 51 51 50 51 53 52 52 51 51 51 49 48 48 48 48 48
58 59 60 58 59 59 59 57 58 57 56 56 56 56 54 51 51 51 50 49 50 50 50 50 50 49 49 49 49 50 52 52 52 52 50 51 51 49 50 49 50 50
59 59 58 57 56 57 57 58 57 57 57 56 56 54 53 50 50 48 47 46 47 49 48 49 49 49 48 51 49 48 49 51 51 49 51 51 51 50 51 51 50 51
58 58 58 58 58 57 57 56 56 56 56 55 54 53 52 50 48 47 45 46 46 47 50 53 54 55 47 44 46 52 49 47 50 50 48 49 51 52 52 51 50 51
57 58 58 57 57 57 57 56 57 57 55 54 54 54 54 52 50 47 47 46 46 48 50 55 54 47 39 39 40 44 49 51 49 49 48 47 47 51 51 50 51 48
53 53 53 55 56 55 54 54 54 55 55 57 56 56 55 55 54 51 52 52 54 55 55 54 52 41 39 39 39 40 42 53 50 50 50 49 47 47 47 49 49 51
50 50 50 50 51 53 54 54 54 54 53 54 55 57 58 56 55 55 56 56 54 52 51 50 48 38 39 39 39 38 38 45 47 49 48 48 50 50 49 50 50 51
50 49 49 49 51 51 52 51 51 51 52 53 53 54 55 57 57 56 54 52 51 49 47 45 44 39 37 38 39 38 38 40 51 52 50 50 49 50 51 52 52 52
47 47 48 48 49 48 48 49 50 51 50 52 52 53 52 53 53 53 52 50 49 46 44 43 42 37 37 37 37 38 38 40 56 55 53 53 53 54 53 53 53 52
47 46 48 47 48 48 48 48 48 49 47 47 49 49 48 48 47 48 49 49 49 46 43 41 41 36 36 37 37 37 38 55 55 56 54 54 55 56 55 54 54 55
44 44 43 44 45 44 43 43 43 43 43 43 44 43 43 44 45 45 44 46 46 47 44 42 41 38 36 36 36 37 45 52 54 51 53 55 56 57 55 57 59 58
44 41 43 44 43 42 43 43 43 43 41 41 41 41 41 42 42 42 43 42 43 46 45 43 42 39 36 36 36 37 40 49 47 49 51 51 52 54 53 54 52 50
42 43 42 43 44 44 45 45 45 44 44 44 43 41 40 39 38 40 41 43 42 43 45 45 44 41 36 36 36 36 42 47 44 45 47 48 47 48 50 50 54 51
39 40 40 41 42 43 43 44 44 45 45 45 44 44 42 41 40 41 41 41 42 43 44 44 45 43 39 36 36 37 37 44 43 42 43 43 44 43 43 47 48 53

ECMWFNIL_sfc_dewp_045.txt.gz
Dewpoint
66 64 65 63 62 61 61 61 61 62 61 59 60 60 59 60 61 62 62 62 62 62 62 62 61 62 63 64 64 62 62 63 62 62 63 65 64 64 63 62 63 62
64 64 64 63 62 61 60 62 62 61 60 60 59 59 60 61 61 61 61 61 61 61 61 62 61 61 62 62 64 63 62 62 62 60 61 63 64 62 63 63 63 64
64 65 64 63 63 62 63 63 62 61 61 60 61 61 60 61 61 61 62 61 60 60 61 61 62 61 61 61 63 63 62 62 61 61 61 61 62 62 62 62 63 63
65 65 64 63 64 63 62 62 62 61 61 60 60 60 60 61 61 61 61 60 59 60 61 60 61 60 59 60 62 62 62 61 61 63 62 62 62 61 62 63 62 62
65 64 63 64 64 62 61 60 60 60 60 60 60 61 60 60 61 59 60 60 59 58 58 58 59 59 59 59 59 61 61 61 61 62 61 61 62 62 62 63 62 62
63 63 61 61 61 58 58 58 58 59 59 60 59 58 58 58 57 56 57 57 58 57 57 58 57 58 59 59 59 60 62 60 60 61 60 58 60 60 59 61 61 61
64 63 62 61 59 56 56 57 58 57 57 59 57 58 58 57 56 56 56 57 57 56 56 58 58 58 59 59 59 60 62 61 60 60 57 58 58 60 59 60 59 59
64 63 61 57 58 56 58 57 57 57 59 58 58 57 57 55 55 56 56 56 55 54 54 54 55 56 57 58 57 60 61 60 60 58 56 55 58 57 57 58 60 58
63 63 63 60 57 57 58 57 58 59 58 58 57 56 56 55 55 56 55 54 53 54 53 53 54 53 56 56 57 60 59 61 61 57 57 55 56 56 53 57 59 58
61 63 62 61 57 56 58 58 58 59 58 57 55 55 53 55 55 54 53 54 53 52 52 53 53 54 55 55 55 57 59 57 58 57 55 54 54 53 51 55 58 58
62 63 62 58 57 57 58 58 58 58 58 54 54 54 54 55 54 53 52 53 55 51 51 52 53 54 55 55 57 57 56 55 56 54 55 54 54 53 55 52 56 58
62 61 62 58 57 58 58 58 57 57 57 57 53 53 55 54 53 53 50 50 50 50 50 50 50 52 52 53 53 54 55 56 54 53 53 52 51 49 48 50 53 54
60 61 64 60 59 58 58 57 57 57 56 54 55 55 55 53 52 51 51 51 51 51 48 48 48 48 50 51 52 52 53 52 52 52 52 52 51 48 48 49 50 50
61 62 62 61 58 58 57 57 56 57 54 56 55 54 54 51 51 51 52 51 53 51 49 48 49 48 48 49 50 51 51 52 52 52 51 51 52 49 49 49 49 50
62 61 61 60 56 56 56 55 56 54 57 56 56 55 54 51 51 52 51 51 50 51 48 48 50 53 49 49 51 47 48 51 52 50 51 51 51 49 50 49 50 51
59 60 59 60 59 57 54 55 55 56 56 56 56 54 52 51 50 49 47 49 48 49 49 54 54 53 46 42 43 49 52 47 52 52 51 51 51 50 51 51 50 51
57 59 59 58 59 58 58 56 55 56 57 56 54 53 52 50 49 47 47 46 47 49 53 55 53 47 41 38 39 41 48 56 49 50 50 49 50 51 51 51 51 50
57 57 58 59 58 57 58 58 58 58 55 53 54 53 52 50 49 47 47 48 52 55 54 53 50 40 38 39 39 38 40 53 52 50 50 49 48 48 49 50 50 50
54 55 56 55 56 56 56 56 56 56 57 57 58 57 54 51 51 52 53 55 54 52 52 51 49 38 37 39 38 38 36 42 48 49 48 48 47 45 45 46 47 49
52 53 53 53 54 55 55 55 55 56 57 58 58 57 57 57 56 55 54 53 52 50 49 47 45 39 37 37 38 38 37 41 49 49 49 47 47 48 49 51 51 51
51 52 52 52 52 53 54 54 55 54 55 56 58 59 59 57 56 55 52 50 48 47 45 44 43 37 36 37 37 37 37 39 54 52 49 49 50 51 51 51 52 52
50 50 51 50 51 51 50 51 52 52 53 53 54 55 56 57 57 54 52 49 47 45 43 42 42 36 36 36 36 36 37 54 53 52 51 50 51 51 49 50 50 51
50 49 49 49 50 50 50 50 50 50 51 52 52 53 53 54 53 53 50 48 47 46 45 42 40 38 36 36 36 36 41 52 52 50 51 52 53 53 52 51 56 56
49 49 49 49 49 48 49 49 50 51 51 52 51 51 50 48 47 47 47 48 47 45 43 42 41 39 36 36 36 36 38 50 50 49 51 52 54 54 53 54 53 51
48 48 48 48 48 49 50 49 50 50 47 47 48 49 48 47 44 43 44 44 45 46 48 45 43 40 36 36 36 36 40 44 47 47 49 51 50 51 52 52 50 46
44 44 44 44 44 45 47 48 48 46 46 46 46 44 47 49 47 47 47 46 46 46 46 46 45 40 37 36 36 36 36 43 45 44 44 45 46 45 46 48 52 47